This is the latest recevied weather packets stored in our database for station/object N9XTN-3. If no packets are shown the sender has not sent any weather packets the latest 10 day(s).
| Time | Temp. | Humidity | Pressure | Rain* | Wind** | Luminosity | Snow |
|---|---|---|---|---|---|---|---|
| 1777318517 | 12.22° C | 83% | 1005.2 hPa | 0 mm | - | - | - |
| 1777317017 | 12.22° C | 82% | 1004.8 hPa | 0 mm | - | - | - |
| 1777314037 | 12.22° C | 85% | 1004.1 hPa | 0 mm | - | - | - |
| 1777310416 | 12.78° C | 85% | 1003.4 hPa | 0 mm | - | - | - |
| 1777310116 | 12.22° C | 86% | 1003.3 hPa | 0 mm | - | - | - |
| 1777306216 | 12.22° C | 89% | 1002.5 hPa | 0 mm | - | - | - |
| 1777305916 | 12.22° C | 89% | 1002.4 hPa | 0 mm | - | - | - |
| 1777305616 | 12.78° C | 89% | 1002.3 hPa | 0 mm | - | - | - |
| 1777303217 | 12.22° C | 92% | 1002 hPa | 0 mm | - | - | - |
| 1777302937 | 12.22° C | 92% | 1001.9 hPa | 0 mm | - | - | - |
| 1777301717 | 12.22° C | 93% | 1001.4 hPa | 0 mm | - | - | - |
| 1777298716 | 14.44° C | 94% | 1000.7 hPa | 0 mm | - | - | - |
| 1777298417 | 14.44° C | 93% | 1000.6 hPa | 0 mm | - | - | - |
| 1777297517 | 15.56° C | 94% | 1000.1 hPa | 0 mm | - | - | - |
| 1777294517 | 15.56° C | 95% | 999.6 hPa | 0 mm | - | - | - |
| 1777291537 | 15.56° C | 95% | 999.6 hPa | 0 mm | - | - | - |
| 1777290917 | 15.56° C | 94% | 999 hPa | 0 mm | - | - | - |
| 1777287917 | 15.56° C | 95% | 1000.9 hPa | 0 mm | - | - | - |
| 1777287617 | 15.56° C | 95% | 1000.9 hPa | 0 mm | - | - | - |
| 1777284617 | 15.56° C | 94% | 1000.6 hPa | 0 mm | - | - | - |
| 1777282817 | 16.11° C | 93% | 999.5 hPa | 0 mm | - | - | - |
| 1777281317 | 16.11° C | 93% | 999.3 hPa | 0 mm | - | - | - |
| 1777280117 | 16.11° C | 94% | 1000.3 hPa | 0 mm | - | - | - |
| 1777279257 | 16.11° C | 93% | 999 hPa | 0 mm | - | - | - |
| 1777276217 | 16.11° C | 94% | 1001.7 hPa | 0 mm | - | - | - |
* Rain latest hour (hover to see other rain measurements)
** Current wind speed in m/s (hover to see current wind gust speed)